Date String (YYYY-MM-DD hh:mm:ss) UTC,Instrument flags,absolute air pressure of the measurement (hPa),sample flow rate (lpm),inlet stack bypass flow (lpm),air temperature of the measurement (°C),ambient temperature measured by the external sensor (°C),aerosol sample conditioner tube jacket temperature (°C),OPC LED temperature (°C),internal box temperature (°C),relative humidity of the measurement (%),span deviation,mass concentration of particles derived from Lorenz-Mie calculation of OPC scattering (μg/m³),mass concentration of particles derived from Lorenz-Mie calculation of OPC scattering (μg/m³),mass concentration of particles derived from Lorenz-Mie calculation of OPC scattering (μg/m³)
DateTimeUTC,F1_M11,P_M11,Q1_M11,Q2_M11,T1_M11,T2_M11,T3_M11,T4_M11,T5_M11,U1_M11,ZSPAN_M11,X0_M11,X2_M11,X1_M11
2024-03-25 17:00:00,SystemResetWarning,0818.5,5.01,000.00,018.3,017.1,000.0,027.2,020.0,13.3,0000.0,0008.94,0006.01,0005.80
2024-03-25 17:01:00,SystemResetWarning,0818.5,5.00,000.00,018.3,017.1,000.0,027.2,020.0,13.2,0000.0,0008.80,0005.99,0005.81
2024-03-25 17:02:00,SystemResetWarning,0818.5,4.99,000.00,018.3,017.0,000.0,027.2,020.0,13.2,0000.0,0008.80,0006.00,0005.81
2024-03-25 17:03:00,SystemResetWarning,0818.5,4.99,000.00,018.2,017.0,000.0,027.2,020.0,13.2,0000.0,0009.03,0006.02,0005.82
2024-03-25 17:04:00,SystemResetWarning,0818.5,5.00,000.00,018.3,017.2,000.0,027.2,020.1,13.2,0000.0,0009.49,0006.05,0005.85
2024-03-25 17:05:00,SystemResetWarning,0818.6,5.02,000.00,018.5,018.4,000.0,027.3,020.8,13.2,0000.0,0009.65,0006.06,0005.87
2024-03-25 17:06:00,SystemResetWarning,0818.5,5.00,000.00,018.8,019.4,000.0,027.3,021.4,12.9,0000.0,0009.87,0006.08,0005.90
2024-03-25 17:07:00,SystemResetWarning,0818.5,4.98,000.00,018.9,019.3,000.0,027.3,021.2,12.9,0000.0,0009.97,0006.08,0005.92
2024-03-25 17:08:00,SystemResetWarning,0818.5,5.01,000.00,018.9,018.9,000.0,027.3,020.9,12.9,0000.0,0009.90,0006.08,0005.94
2024-03-25 17:09:00,SystemResetWarning,0818.5,5.02,000.00,018.8,018.5,000.0,027.3,020.7,12.8,0000.0,0009.84,0006.08,0005.95
2024-03-25 17:10:00,SystemResetWarning,0818.5,4.99,000.00,018.8,018.2,000.0,027.3,020.5,12.9,0000.0,0009.38,0006.07,0005.95
2024-03-25 17:11:00,SystemResetWarning,0818.5,4.99,000.00,018.7,018.0,000.0,027.3,020.4,13.0,0000.0,0009.15,0006.07,0005.96
2024-03-25 17:12:00,SystemResetWarning,0818.5,5.02,000.00,018.7,017.8,000.0,027.3,020.3,13.0,0000.0,0009.19,0006.10,0005.98
2024-03-25 17:13:00,SystemResetWarning,0818.5,4.99,000.00,018.6,017.6,000.0,027.3,020.2,13.0,0000.0,0009.40,0006.12,0006.00
2024-03-25 17:14:00,SystemResetWarning,0818.5,4.99,000.00,018.5,017.4,000.0,027.2,020.1,13.1,0000.0,0009.99,0006.13,0006.01
2024-03-25 17:15:00,SystemResetWarning,0818.5,5.00,000.00,018.5,017.3,000.0,027.2,020.0,13.3,0000.0,0009.49,0006.14,0006.02
2024-03-25 17:16:00,SystemResetWarning,0818.5,5.01,000.00,018.4,017.2,000.0,027.2,020.0,13.2,0000.0,0009.38,0006.16,0006.04
2024-03-25 17:17:00,SystemResetWarning,0818.5,5.00,000.00,018.4,017.1,000.0,027.2,020.0,13.2,0000.0,0009.09,0006.16,0006.05
2024-03-25 17:18:00,SystemResetWarning,0818.5,5.00,000.00,018.3,017.1,000.0,027.2,020.0,13.4,0000.0,0008.94,0006.19,0006.07
2024-03-25 17:19:00,SystemResetWarning,0818.5,5.00,000.00,018.3,017.0,000.0,027.2,020.0,13.5,0000.0,0008.98,0006.21,0006.08
2024-03-25 17:20:00,SystemResetWarning,0818.5,5.00,000.00,018.3,017.0,000.0,027.2,020.0,13.6,0000.0,0009.03,0006.23,0006.09
2024-03-25 17:21:00,SystemResetWarning,0818.5,4.99,000.00,018.3,017.0,000.0,027.2,020.0,13.6,0000.0,0009.02,0006.23,0006.10
2024-03-25 17:22:00,SystemResetWarning,0818.5,4.99,000.00,018.3,017.0,000.0,027.2,020.0,13.3,0000.0,0009.06,0006.25,0006.11
2024-03-25 17:23:00,SystemResetWarning,0818.5,5.00,000.00,018.2,016.9,000.0,027.2,020.0,13.4,0000.0,0009.04,0006.26,0006.12
2024-03-25 17:24:00,SystemResetWarning,0818.5,5.00,000.00,018.2,017.0,000.0,027.2,020.1,13.5,0000.0,0008.83,0006.27,0006.13
2024-03-25 17:25:00,SystemResetWarning,0818.5,5.02,000.00,018.4,018.0,000.0,027.3,020.6,13.2,0000.0,0008.14,0006.27,0006.14
2024-03-25 17:26:00,SystemResetWarning,0818.6,5.00,000.00,018.7,019.3,000.0,027.4,021.3,13.0,0000.0,0008.18,0006.29,0006.14
2024-03-25 17:27:00,SystemResetWarning,0818.6,4.98,000.00,018.9,019.4,000.0,027.3,021.3,12.8,0000.0,0008.27,0006.29,0006.12
2024-03-25 17:28:00,SystemResetWarning,0818.6,5.00,000.00,018.9,019.1,000.0,027.3,021.0,12.9,0000.0,0008.32,0006.29,0006.12
2024-03-25 17:29:00,SystemResetWarning,0818.5,5.01,000.00,018.9,018.7,000.0,027.3,020.8,13.0,0000.0,0008.30,0006.28,0006.13
2024-03-25 17:30:00,SystemResetWarning,0818.5,5.00,000.00,018.8,018.4,000.0,027.3,020.6,13.1,0000.0,0008.33,0006.28,0006.12
2024-03-25 17:31:00,SystemResetWarning,0818.5,5.00,000.00,018.8,018.2,000.0,027.3,020.5,13.1,0000.0,0008.31,0006.28,0006.13
2024-03-25 17:32:00,SystemResetWarning,0818.5,5.00,000.00,018.7,018.0,000.0,027.3,020.4,13.3,0000.0,0008.35,0006.31,0006.16
2024-03-25 17:33:00,SystemResetWarning,0818.5,4.99,000.00,018.7,017.8,000.0,027.3,020.3,13.4,0000.0,0008.40,0006.33,0006.17
2024-03-25 17:34:00,SystemResetWarning,0818.5,5.00,000.00,018.6,017.7,000.0,027.3,020.2,13.4,0000.0,0008.41,0006.34,0006.18
2024-03-25 17:35:00,SystemResetWarning,0818.5,4.99,000.00,018.5,017.5,000.0,027.3,020.1,13.4,0000.0,0008.49,0006.37,0006.18
2024-03-25 17:36:00,SystemResetWarning,0818.5,5.01,000.00,018.5,017.4,000.0,027.2,020.1,13.4,0000.0,0009.07,0006.37,0006.20
2024-03-25 17:37:00,SystemResetWarning,0818.5,5.01,000.00,018.4,017.4,000.0,027.2,020.1,13.7,0000.0,0009.18,0006.39,0006.22
2024-03-25 17:38:00,SystemResetWarning,0818.5,5.00,000.00,018.4,017.3,000.0,027.2,020.0,13.7,0000.0,0009.38,0006.45,0006.26
2024-03-25 17:39:00,SystemResetWarning,0818.5,5.00,000.00,018.4,017.3,000.0,027.2,020.0,13.4,0000.0,0009.38,0006.49,0006.29
2024-03-25 17:40:00,SystemResetWarning,0818.5,5.01,000.00,018.4,017.3,000.0,027.2,020.0,13.3,0000.0,0009.45,0006.53,0006.31
2024-03-25 17:41:00,SystemResetWarning,0818.5,5.00,000.00,018.3,017.2,000.0,027.2,020.0,13.4,0000.0,0009.42,0006.54,0006.33
2024-03-25 17:42:00,SystemResetWarning,0818.5,4.99,000.00,018.3,017.2,000.0,027.2,020.0,13.2,0000.0,0009.45,0006.58,0006.36
2024-03-25 17:43:00,SystemResetWarning,0818.5,4.99,000.00,018.3,017.1,000.0,027.2,020.0,13.4,0000.0,0009.46,0006.59,0006.37
2024-03-25 17:44:00,SystemResetWarning,0818.5,5.00,000.00,018.3,017.1,000.0,027.2,020.0,13.6,0000.0,0009.45,0006.62,0006.40
2024-03-25 17:45:00,SystemResetWarning,0818.5,5.01,000.00,018.3,017.1,000.0,027.2,020.0,13.7,0000.0,0009.49,0006.64,0006.42
2024-03-25 17:46:00,SystemResetWarning,0818.5,4.99,000.00,018.2,017.1,000.0,027.2,020.0,13.5,0000.0,0009.53,0006.67,0006.44
2024-03-25 17:47:00,SystemResetWarning,0818.5,4.99,000.00,018.2,017.1,000.0,027.2,020.0,13.6,0000.0,0008.94,0006.70,0006.46
2024-03-25 17:48:00,SystemResetWarning,0818.5,5.00,000.00,018.2,017.0,000.0,027.2,020.0,13.6,0000.0,0008.87,0006.73,0006.49
2024-03-25 17:49:00,SystemResetWarning,0818.5,5.00,000.00,018.2,017.0,000.0,027.1,020.0,13.6,0000.0,0008.74,0006.73,0006.50
2024-03-25 17:50:00,SystemResetWarning,0818.5,5.00,000.00,018.2,017.0,000.0,027.1,020.0,13.5,0000.0,0008.78,0006.74,0006.52
2024-03-25 17:51:00,SystemResetWarning,0818.5,5.00,000.00,018.2,017.0,000.0,027.1,020.0,13.4,0000.0,0008.86,0006.75,0006.54
2024-03-25 17:52:00,SystemResetWarning,0818.4,5.00,000.00,018.2,017.0,000.0,027.1,020.0,13.5,0000.0,0009.15,0006.80,0006.57
2024-03-25 17:53:00,SystemResetWarning,0818.5,5.00,000.00,018.2,017.0,000.0,027.1,020.0,13.9,0000.0,0009.50,0006.82,0006.59
2024-03-25 17:54:00,SystemResetWarning,0818.5,5.00,000.00,018.2,017.0,000.0,027.1,020.0,13.7,0000.0,0009.52,0006.84,0006.61
2024-03-25 17:55:00,SystemResetWarning,0818.4,5.00,000.00,018.2,017.0,000.0,027.1,020.0,13.7,0000.0,0009.51,0006.84,0006.62
2024-03-25 17:56:00,SystemResetWarning,0818.4,5.00,000.00,018.2,017.0,000.0,027.1,020.0,13.7,0000.0,0009.53,0006.86,0006.65
2024-03-25 17:57:00,SystemResetWarning,0818.4,5.00,000.00,018.2,017.1,000.0,027.1,020.0,13.8,0000.0,0009.51,0006.86,0006.67
2024-03-25 17:58:00,SystemResetWarning,0818.4,5.00,000.00,018.2,017.1,000.0,027.1,020.0,13.9,0000.0,0009.52,0006.88,0006.69
2024-03-25 17:59:00,SystemResetWarning,0818.4,4.99,000.00,018.2,017.1,000.0,027.1,020.0,14.2,0000.0,0009.60,0006.89,0006.71
